Regional Weather Roundup
Issued by NWS

Home | Current Version | Previous Version | Text Only | Print | Product List | Glossary On
Versions: 1 2 3 4 5 6 7 8 9 10 11 12 13 14 15 16 17 18 19 20 21 22 23 24 25 26 27 28 29 30 31 32 33 34 35 36 37 38 39 40 41 42 43 44 45 46 47 48 49 50
000
ASUS43 KDMX 251607
RWRIA

WEATHER ROUNDUP FOR IOWA
NATIONAL WEATHER SERVICE DES MOINES IA
1100 AM CDT SAT APR 25 2015

NOTE: "FAIR" INDICATES FEW OR NO CLOUDS BELOW 12,000 FEET WITH NO
SIGNIFICANT WEATHER AND/OR OBSTRUCTIONS TO VISIBILITY.

* - THESE STATIONS ARE NOT NWS STATIONS...THUS NOT UNDER NWS
QUALITY CONTROL.  THEY ALSO DO NOT REPORT WEATHER SUCH
AS PRECIPITATION OR FOG.

IAZ001>003-012>014-020>022-031>034-043>046-251700-
   NORTHWEST IOWA

CITY           SKY/WX    TMP DP  RH WIND       PRES   REMARKS
CARROLL *      CLOUDY    45  45 100 E20G25    29.67R FOG
CHEROKEE *     CLOUDY    46  41  81 NE18G24   29.70S
DENISON *      CLOUDY    45  45 100 E14G24    29.64R FOG
LE MARS *      PTSUNNY   50  43  76 NE17G25   29.70S
ORANGE CITY *  MOSUNNY   46  39  76 E16G22    29.71R
SHELDON *      CLOUDY    46  41  81 E21       29.71S
SIOUX CITY     CLOUDY    50  43  77 NE13      29.69R
SPENCER        CLOUDY    47  39  74 E21       29.73S
STORM LAKE *   MOSUNNY   45  43  93 E23G29    29.69R FOG
$$

IAZ055>058-069>071-079>083-090>094-251700-
   SOUTHWEST IOWA

CITY           SKY/WX    TMP DP  RH WIND       PRES   REMARKS
ATLANTIC *     CLOUDY    46  46 100 NE17      29.61R FOG
AUDUBON *      CLOUDY    45  43  93 E17G24    29.64R FOG
CLARINDA *     CLOUDY    50  50 100 NE14G20   29.58R FOG
COUNCIL BLFS * CLOUDY    46  46 100 NE14G22   29.61R
CRESTON *      CLOUDY    45  45 100 NE20G28   29.57R FOG
HARLAN  *      CLOUDY    46  46 100 NE14G22   29.66R
LAMONI         LGT RAIN  48  46  93 NE21G26   29.54R FOG
RED OAK *      CLOUDY    48  48 100 NE15G22   29.58R FOG
SHENANDOAH *   LGT RAIN  50  50 100 NE16G22   29.57R
$$

IAZ047>049-059>061-072>074-084-251700-
   CENTRAL IOWA

CITY           SKY/WX    TMP DP  RH WIND       PRES   REMARKS
AMES           CLOUDY    46  41  82 NE16G29   29.66R
ANKENY *       LGT RAIN  45  45 100 NE14G20   29.64R
CHARITON *     CLOUDY    45  45 100 NE17      29.58S
DES MOINES     CLOUDY    47  43  86 E15G23    29.63R
GRINNELL*      LGT RAIN  45  43  93 NE21G26   29.63R
KNOXVILLE *    CLOUDY    45  43  93 E12G20    29.60R
MARSHALLTOWN   CLOUDY    45  42  89 NE21      29.65F
PELLA *        CLOUDY    45  45 100 E9        29.63F
PERRY *        CLOUDY    46  43  87 E14G20    29.65R FOG
$$

IAZ004>006-015-016-023>025-035-036-251700-
   NORTH CENTRAL IOWA

CITY           SKY/WX    TMP DP  RH WIND       PRES   REMARKS
ALGONA *       CLOUDY    46  41  81 E18       29.73F
CLARION *      CLOUDY    45  43  93 E21G28    29.71S
ESTHERVILLE    CLOUDY    44  38  79 E16       29.75R
FORT DODGE *   CLOUDY    46  39  76 E21G26    29.70S
MASON CITY     CLOUDY    48  39  71 E23       29.76S
FOREST CITY *  CLOUDY    46  37  71 E16       29.75S
IOWA FALLS *   CLOUDY    45  39  81 E18G24    29.70F
$$

IAZ007>011-017>019-026>030-037>042-050>054-066-251700-
   NORTHEAST IOWA

CITY           SKY/WX    TMP DP  RH WIND       PRES   REMARKS
CEDAR RAPIDS   LGT RAIN  43  43 100 NE20      29.66F FOG
CHARLES CITY * SUNNY     48  41  76 E18G25    29.76R
CLINTON *      CLOUDY    45  41  87 E12       29.77R
DECORAH *      CLOUDY    46  37  71 E16G23    29.77S
DUBUQUE        CLOUDY    45  38  76 NE18G24   29.73F
MONTICELLO *   CLOUDY    45  43  93 E14G23    29.72R FOG
OELWEIN *      CLOUDY    45  37  76 E20       29.73R
WATERLOO       CLOUDY    46  38  73 E18       29.72R
$$

IAZ064-065-067-068-078-251700-
   EAST CENTRAL IOWA

CITY           SKY/WX    TMP DP  RH WIND       PRES   REMARKS
DAVENPORT      LGT RAIN  45  42  89 E15       29.72F FOG
IOWA CITY      LGT RAIN  45  44  97 NE17G29   29.65F FOG
MT. PLEASANT * LGT RAIN  48  48 100 E13G23    29.60R
MUSCATINE *    CLOUDY    46  45  93 E18G25    29.62F
QUAD CITIES    LGT RAIN  46  43  89 NE18G26   29.68F FOG
$$

IAZ062-063-075>077-085>089-095>099-251700-
   SOUTHEAST IOWA

CITY           SKY/WX    TMP DP  RH WIND       PRES   REMARKS
BURLINGTON     CLOUDY    50  50 100 E18G26    29.52F
FAIRFIELD *    CLOUDY    46  45  93 E13       29.60R
FORT MADISON * CLOUDY    48  48 100 SE7       29.58R FOG
KEOKUK *       CLOUDY    50  50 100 E16       29.55F
OSKALOOSA *    CLOUDY    45  43  93 E13G20    29.62R
CENTERVILLE *  CLOUDY    46  46 100 NE13G23   29.56S
OTTUMWA        CLOUDY    46  44  93 E13       29.60R
WASHINGTON *   CLOUDY    46  46 100 E29G36    29.57F FOG
$$

ABBREVIATIONS USED IN REMARKS
   TC - TEMPERATURES IN CELSIUS
  WCI - WIND CHILL INDEX
   HX - HEAT INDEX
  VSB - VISIBILITY
$$



USA.gov is the U.S. government's official web portal to all federal, state and local government web resources and services.